W4AKE Weather Reports


time (UTC)temp
F
wind
direction
speed
knots
gust
knots
rain 1hr
in
rain 24hr
in
rain mn
in
humidity
%
barometer
mb
20200531074859 77 131 0.0 1.7 0.00 0.00 0.00 88 1013.4
20200531072853 77 153 0.0 0.9 0.00 0.00 0.00 87 1013.6
20200531071348 77 138 0.0 1.7 0.00 0.00 0.00 88 1013.7
20200531065427 76 171 0.0 0.0 0.00 0.00 0.00 90 1013.9
20200531063436 76 179 0.0 0.0 0.00 0.00 0.00 89 1014.0
20200531061925 76 179 0.0 0.0 0.00 0.00 0.00 89 1014.2
20200531055933 77 167 0.0 0.0 0.00 0.00 0.00 88 1014.3
20200531054424 77 167 0.0 0.0 0.00 0.00 0.00 87 1014.5
20200531052431 78 155 0.0 1.7 0.00 0.00 0.00 86 1014.7
20200531050431 78 157 0.0 3.5 0.00 0.00 0.00 85 1015.1
20200531044925 79 148 0.0 2.6 0.00 0.00 0.00 84 1015.2
20200531043411 79 137 1.7 4.3 0.00 0.00 0.00 84 1015.2
20200531041849 79 145 2.6 5.2 0.00 0.00 0.00 84 1015.3
20200531035918 79 153 1.7 5.2 0.00 0.00 0.00 84 1015.4
20200531034414 79 146 1.7 6.1 0.00 0.00 0.00 83 1015.4
20200531032905 79 174 1.7 6.1 0.00 0.00 0.00 83 1015.6
20200531030923 79 93 0.9 5.2 0.00 0.00 0.00 82 1015.6
20200531025401 80 84 0.9 6.1 0.00 0.00 0.00 82 1015.5
20200531023411 79 108 1.7 6.1 0.00 0.00 0.00 82 1015.4
20200531021415 80 167 1.7 7.0 0.00 0.00 0.00 83 1015.4
20200531015422 80 96 2.6 7.0 0.00 0.00 0.00 84 1015.1
20200531013904 80 103 3.5 9.6 0.00 0.00 0.00 84 1014.8
20200531011918 80 99 2.6 7.8 0.00 0.00 0.00 84 1014.7
20200531010357 80 105 4.3 8.7 0.00 0.00 0.00 83 1014.5
20200531004418 80 86 3.5 8.7 0.00 0.00 0.00 83 1014.3
20200531002914 80 141 2.6 7.8 0.00 0.00 0.00 82 1014.2
20200531000918 81 194 4.3 9.6 0.00 0.00 0.00 82 1013.8
20200530235412 81 121 4.3 10.4 0.00 0.00 0.00 81 1013.5
20200530233910 81 184 4.3 8.7 0.00 0.00 0.00 81 1013.4
20200530231921 81 101 1.7 8.7 0.00 0.00 0.00 80 1013.2
20200530230410 81 110 5.2 9.6 0.00 0.00 0.00 79 1013.1
20200530224431 82 146 2.6 8.7 0.00 0.00 0.00 79 1013.2
20200530222855 82 171 2.6 10.4 0.00 0.00 0.00 77 1013.4
20200530221126 84 142 5.2 12.2 0.00 0.00 0.00 76 1013.3
20200530213902 84 91 4.3 11.3 0.00 0.00 0.00 74 1013.0
20200530211911 84 137 2.6 11.3 0.00 0.00 0.00 75 1013.0
20200530205908 85 160 5.2 11.3 0.00 0.00 0.00 74 1013.0
20200530204405 84 125 6.1 13.0 0.00 0.00 0.00 76 1013.3
20200530202404 85 94 4.3 10.4 0.00 0.00 0.00 74 1013.6
20200530200856 85 122 7.0 11.3 0.00 0.00 0.00 71 1013.7
20200530194905 85 120 5.2 10.4 0.00 0.00 0.00 73 1013.9
20200530193401 85 117 5.2 11.3 0.00 0.00 0.00 74 1014.1
20200530191851 83 63 4.3 12.2 0.00 0.00 0.00 79 1014.1
20200530185902 83 117 7.0 12.2 0.00 0.00 0.00 79 1014.3
20200530184358 83 75 6.1 10.4 0.00 0.00 0.00 78 1014.5
20200530182839 84 120 5.2 9.6 0.00 0.00 0.00 78 1014.6
20200530181334 85 100 6.1 11.3 0.00 0.00 0.00 75 1014.6
20200530175406 85 122 4.3 10.4 0.00 0.00 0.00 74 1014.8
20200530173402 85 89 5.2 10.4 0.00 0.00 0.00 72 1014.9
20200530171400 85 141 5.2 12.2 0.00 0.00 0.00 74 1015.0
20200530165420 84 111 3.5 9.6 0.00 0.00 0.00 75 1015.2
20200530163421 83 105 5.2 12.2 0.00 0.00 0.00 79 1015.2
20200530161900 83 330 4.3 11.3 0.00 0.00 0.00 78 1015.2
20200530155903 82 114 7.8 13.0 0.00 0.00 0.00 79 1015.4
20200530153918 83 93 2.6 11.3 0.00 0.00 0.00 78 1015.5
20200530151928 83 83 5.2 10.4 0.00 0.00 0.00 77 1015.6
20200530145425 83 79 4.3 9.6 0.00 0.00 0.00 78 1015.6
20200530143919 83 85 2.6 10.4 0.00 0.00 0.00 77 1015.7
20200530142409 82 68 4.3 9.6 0.00 0.00 0.00 78 1015.7
20200530140412 82 176 3.5 9.6 0.00 0.00 0.00 80 1015.7
20200530134411 82 103 6.1 11.3 0.00 0.00 0.00 80 1015.7
20200530132905 82 98 5.2 9.6 0.00 0.00 0.00 80 1015.7
20200530130909 82 103 7.0 11.3 0.00 0.00 0.00 80 1015.7
20200530124920 82 91 5.2 10.4 0.00 0.00 0.00 81 1015.6
20200530122918 81 128 1.7 7.0 0.00 0.00 0.00 82 1015.4
20200530121417 81 158 2.6 7.8 0.00 0.00 0.00 81 1015.3
20200530115905 81 154 3.5 8.7 0.00 0.00 0.00 83 1015.2
20200530114354 81 157 2.6 7.0 0.00 0.00 0.00 82 1015.2
20200530112356 79 160 3.5 8.7 0.00 0.00 0.00 84 1014.9
20200530110842 79 106 2.6 5.2 0.00 0.00 0.00 85 1014.9
20200530105330 79 146 1.7 5.2 0.00 0.00 0.00 85 1014.9
20200530103337 79 157 3.5 6.1 0.00 0.00 0.00 85 1014.7
20200530101354 78 138 2.6 8.7 0.00 0.00 0.00 86 1014.5
20200530095843 79 194 1.7 7.0 0.00 0.00 0.00 86 1014.3
20200530093911 79 186 3.5 8.7 0.00 0.00 0.00 85 1014.1
20200530092403 79 160 3.5 7.8 0.00 0.00 0.00 86 1014.2
20200530090855 79 179 5.2 12.2 0.00 0.00 0.00 86 1014.4
20200530085100 79 102 3.5 9.6 0.00 0.00 0.00 85 1014.4
20200530082839 79 34 5.2 7.8 0.00 0.00 0.00 85 1014.5
20200530080840 79 160 4.3 8.7 0.00 0.00 0.00 86 1014.8